Regional Weather Roundup
Issued by NWS Austin/San Antonio, TX

Home | Current Version | Previous Version | Text Only | Print | Product List | Glossary On
Versions: 1 2 3 4 5 6 7 8 9 10 11 12 13 14 15 16 17 18 19 20 21 22 23 24 25 26 27 28 29 30 31 32 33 34 35 36 37 38 39 40 41 42 43 44 45 46 47 48 49 50
000
ASUS44 KEWX 172110
RWREWX
SOUTH TEXAS REGIONAL WEATHER ROUNDUP
NATIONAL WEATHER SERVICE AUSTIN/SAN ANTONIO TX
300 PM CST SUN FEB 17 2019

NOTE: "FAIR" INDICATED FEW OR NO CLOUDS BELOW 12,000 FEET WITH NO
SIGNIFICANT WEATHER AND/OR OBSTRUCTIONS TO VISIBILITY.

* - THESE STATIONS ARE NOT NWS OR FAA STATIONS...AND ARE NOT SUBJECT
    TO NWS AND FAA QUALITY CONTROL.

TXZ171-172-183>190-172200-
TEXAS HILL COUNTRY AND EDWARDS PLATEAU

CITY           SKY/WX    TMP DP  RH WIND       PRES   REMARKS
JUNCTION       SUNNY     63  27  25 NE15G21   29.90F
*LLANO         SUNNY     63  36  36 N10       29.94F
BURNET           N/A     59  35  40 NE15G21   29.93F
*HORSESHOE BAY SUNNY     62  37  39 N9        29.91F
*KERRVILLE     SUNNY     65  27  24 NE14      29.88S
*FREDERICKSBRG SUNNY     61  32  33 NE12G17   29.89F
*ROCKSPRINGS   SUNNY     64  19  17 VRB6G12   29.92S
*BOERNE STAGE  SUNNY     64  28  25 NE13G22   29.87S
*CASTROVILLE   SUNNY     74  26  16 NE15      29.84F
HONDO          SUNNY     77  29  17 NE15      29.83F
*UVALDE        SUNNY     73  28  18 NE3       29.84F
DEL RIO        SUNNY     74  28  18 NW8       29.82F
LAUGHLIN AFB   SUNNY     74  23  15 N3        29.82F
CARRIZO SPRGS  SUNNY     77  30  18 N5        29.80F
*FAITH RANCH   SUNNY     79  27  14 NE7G16    29.80F
$$

TXZ173-191>194-202-209-217>225-228-172200-
CENTRAL AND SOUTH CENTRAL TEXAS

CITY           SKY/WX    TMP DP  RH WIND       PRES   REMARKS
GEORGETOWN     SUNNY     58  39  49 N14       29.93F
AUSTIN/BERGSTM PTSUNNY   61  42  49 NE18      29.89F
AUSTIN/MABRY   SUNNY     62  37  39 N10       29.90F
*AUSTIN/EXEC   SUNNY     57  39  51 N21       29.91S
*LAGO VISTA    SUNNY     61  28  29 N9G17     29.90F
SAN MARCOS     SUNNY     65  41  41 NE17G24   29.88F
NEW BRAUNFELS  SUNNY     67  39  35 NE14      29.85F
RANDOLPH AFB   SUNNY     69  32  26 NE14      29.84S
PT SAN ANTONIO SUNNY     71  34  26 NE17      29.82F
SAN ANTONIO    PTSUNNY   70  31  23 N15G23    29.84F
STINSON FIELD  SUNNY     73  26  17 NE14G23   29.81F
*LA GRANGE     MOSUNNY   61  44  54 N12       29.86S
*GIDDINGS      MOSUNNY   60  44  55 N12G20    29.89F
*GONZALES      MOSUNNY   63  45  52 N13G20    29.85F
$$

TXZ163>164-176>182-195>201-210>213-226-227-235-172200-
SOUTHEAST TEXAS

CITY           SKY/WX    TMP DP  RH WIND       PRES   REMARKS
COLLEGE STN    MOSUNNY   58  44  60 N14       29.89F
*BRYAN         MOSUNNY   57  42  57 N15       29.91S
*CALDWELL      MOSUNNY   56  40  56 N17       29.91R
*CROCKETT        N/A     54  41  62 N12       29.92F
*BRENHAM       MOSUNNY   60  45  59 N13G20    29.88F
HUNTSVILLE     CLOUDY    53  42  66 N10       29.88F
CONROE         CLOUDY    58  48  69 N14G22    29.86F
HOUSTON BUSH   PTSUNNY   62  50  64 N17       29.83S
HOUSTON HOBBY  CLOUDY    59  51  75 N15       29.82S
*HOUSTON SW AP CLOUDY    58  51  77 N14       29.83F
PEARLAND       CLOUDY    58  55  90 N10       29.83S
HOUSTON HOOKS  FAIR      61  48  62 N14G23    29.84F
ELLINGTON FLD  CLOUDY    55  50  82 N13       29.84S
SUGAR LAND     FAIR      63  50  62 N18       29.83S
*HOUSTON EXEC  PTSUNNY   61  50  67 N15       29.85S
*CLEVELAND MUN CLOUDY    57  49  75 N10G21    29.86F
*WHARTON       SUNNY     62  48  59 N15       29.83F
*COLUMBUS      PTSUNNY   60  44  56 N15G23    29.85F
*EAGLE LAKE    CLOUDY    59  46  61 N15G22    29.84
$$

TXZ214>216-236>238-172200-
THE UPPER TEXAS COAST

CITY           SKY/WX    TMP DP  RH WIND       PRES   REMARKS
*ORANGE        DRIZZLE   56  56 100 N15G21    29.83R
PORT ARTHUR    LGT RAIN  56  53  90 N21G30    29.80R FOG
GALVESTON      LGT RAIN  58  55  90 N22G33    29.80S FOG
ANGLETON       CLOUDY    58  55  90 N13       29.80F
*BAY CITY      CLOUDY    61  54  77 N17G24    29.80S
PALACIOS       CLOUDY    64  54  69 N22G33    29.79S
$$

TXZ229>234-239>247-172200-
TEXAS COASTAL BEND AND RIO GRANDE PLAINS

CITY           SKY/WX    TMP DP  RH WIND       PRES   REMARKS
VICTORIA       SUNNY     68  46  45 N16G24    29.81S
*BEEVILLE      SUNNY     76  34  21 NE16G25   29.80S
ROCKPORT       SUNNY     71  54  54 N14       29.77F
*PORT ARANSAS  SUNNY     68  57  67 N20       29.79S
*PORT LAVACA   SUNNY     69  54  58 N21       29.81S
*INGLESIDE     SUNNY     72  55  55 NE17      29.77F
CORPUS CHRISTI MOSUNNY   77  54  44 NE16      29.76F
CORPUS NAS     SUNNY     74  58  57 NE16      29.77S
*ROBSTOWN      NOT AVBL
ALICE          SUNNY     79  41  25 NE17      29.76F
KINGSVILLE NAS PTSUNNY   79  50  36 N14G21    29.75F
COTULLA        SUNNY     76  32  20 NE10G18   29.80F
LAREDO         SUNNY     81  35  19 NE14G21   29.76F
$$

TXZ248>255-172200-
DEEP SOUTH TEXAS

CITY           SKY/WX    TMP DP  RH WIND       PRES   REMARKS
BROWNSVILLE    CLOUDY    70  66  87 N14       29.73S
PORT ISABEL    CLOUDY    68  63  84 N15       29.73S
HARLINGEN      CLOUDY    71  64  78 NE18      29.73F
*HEBBRONVILLE  SUNNY     77  38  24 NE15      29.78F
MCALLEN        CLOUDY    79  67  66 N15G22    29.74F
*WESLACO       CLOUDY    73  64  75 N10G17    29.73
FALFURRIAS     CLOUDY    77  54  44 NE12G20   29.75F
EDINBURG       CLOUDY    76  64  68 N12G17    29.74F
*ZAPATA        FAIR      81  40  23 N12G23    29.76F
$$

TXZ213>215-236>238-242>244-246-247-251-254-255-172200-
CMAN STATIONS

STATION/POSITION TIME  TEMP    WIND        PRES    WAVE
                       AIR SEA DIR/SP/G            HT/PER
                 (UTC) (F)     (DEG/KT/KT) (MB)    (FT/S)
SABINE PASS      2042   59 65  350/ 17/ 24 1010.4
SEA RIM ST PARK  2000   60     360/ 18/ 21 1008.4
NORTH JETTY/GLS  2042   58 61  360/ 20/ 24 1008.4
EAGLE POINT      2042   56 63   10/ 13/ 18 1009.6
MORGANS POINT    2042   56 61  350/ 14/ 18 1009.8
PORT O`CONNOR    2036   60 63  360/ 20/ 23 1008.5
PORT ARANSAS     2000   64 61  360/ 19/ 22 1008.0
MALAQUITE BEACH  2036   66 63   10/ 15/ 17 1007.7
BAFFIN BAY       2036   66 69   20/ 14/ 18 1008.2
PORT ISABEL      2036   64 65  360/ 13/ 23 1006.7
$$




USA.gov is the U.S. government's official web portal to all federal, state and local government web resources and services.